Location: Pilipovskiye Korichintsy
(49.1833°N, 27.4667°E)
Time: 23:53:06
(UTC+00:00)

ISS - Visible Passes

Search period start: 20 September 2020 00:00
Search period end: 30 September 2020 00:00
Orbit: 419 x 420 km, 51.6° (Epoch: 21 September)

Date Brightness Start Highest point End Pass type
(mag) Time Alt. Az. Time Alt. Az. Time Alt. Az.
20 Sep -3.9 18:07:24 10° WSW 18:10:47 87° SSE 18:10:52 84° ESE visible
21 Sep -3.7 17:20:04 10° WSW 17:23:24 64° SSE 17:25:30 21° ENE visible
21 Sep -1.4 18:56:58 10° W 18:58:28 23° WNW 18:58:28 23° WNW visible
22 Sep -3.3 16:32:49 10° SW 16:36:04 45° SSE 16:39:19 10° ENE visible
22 Sep -3.5 18:09:30 10° W 18:12:51 62° N 18:12:59 61° N visible
23 Sep -3.6 17:22:01 10° WSW 17:25:23 74° NNW 17:27:26 22° ENE visible
23 Sep -1.2 18:59:06 10° WNW 19:00:24 21° WNW 19:00:24 21° WNW visible
24 Sep -3.7 16:34:34 10° WSW 16:37:57 87° SSE 16:41:20 10° ENE visible
24 Sep -3.2 18:11:37 10° W 18:14:47 53° NNW 18:14:47 53° NNW visible
25 Sep -3.3 17:24:06 10° W 17:27:26 56° N 17:29:08 25° ENE visible
25 Sep -0.9 19:01:06 10° WNW 19:02:05 18° WNW 19:02:05 18° WNW visible
26 Sep -3.4 16:36:34 10° W 16:39:55 62° N 16:43:17 10° ENE visible
26 Sep -2.9 18:13:38 10° WNW 18:16:24 50° NW 18:16:24 50° NW visible
27 Sep -3.3 17:26:08 10° WNW 17:29:28 55° N 17:30:42 33° ENE visible
27 Sep -0.6 19:03:00 10° WNW 19:03:39 15° WNW 19:03:39 15° WNW visible
28 Sep -3.3 16:38:36 10° W 16:41:56 53° N 16:45:00 12° ENE visible
28 Sep -2.6 18:15:32 10° WNW 18:17:57 44° WNW 18:17:57 44° WNW visible
29 Sep -3.7 17:28:02 10° WNW 17:31:26 72° NNE 17:32:15 47° E visible
29 Sep -0.4 19:05:01 10° W 19:05:12 11° W 19:05:12 11° W visible
